TIANWANG 1A (TW-1A)
1 40928U 15051D   19350.44838610  .00002059  00000-0  50688-4 0  9994
2 40928  97.1281  17.6721 0012047 130.0746 337.3689 15.41667528237019
LAPAN A2
1 40931U 15052B   19350.29653083  .00000664  00000-0  34894-5 0  9993
2 40931   5.9950 208.7366 0012527 191.7083 168.2814 14.76621968227994
LQSAT
1 40958U 15057A   19349.83853633 +.00000001 +00000-0 +78123-5 0  9996
2 40958 097.8791 053.9711 0018699 027.3238 332.8950 14.73100227225335
CHUBUSAT 2
1 41338U 16012B   19349.67298515  .00000265  00000-0  13889-4 0  9994
2 41338  31.0035  80.9117 0013685  85.6068 274.6131 15.00219846209961
CHUBUSAT 3
1 41339U 16012C   19350.42002962  .00000242  00000-0  12042-4 0  9994
2 41339  31.0118  74.0259 0013496  99.2758 260.9414 15.00390282210072
OUFTI-1
1 41458U 16025C   19349.71200482 +.00001052 +00000-0 +56543-4 0  9991
2 41458 098.1002 085.7312 0166446 111.5100 250.3962 15.06308361199667
E-STAR-2
1 41459U 16025D   19350.37103604  .00000690  00000-0  38896-4 0  9992
2 41459  98.0988  85.9760 0167637 110.8874 251.0395 15.05910303199732
AAUSAT 4
1 41460U 16025E   19350.51006450  .00001212  00000-0  63338-4 0  9991
2 41460  98.0972  87.8506 0157354 101.3321 260.5650 15.07993624199911
NUSAT 1
1 41557U 16033B   19350.07535002  .00000885  00000-0  35484-4 0  9994
2 41557  97.4124  76.5082 0014288  26.9196 333.2781 15.27598942197629
BEESAT 4
1 41619U 16040W   19349.89633337  .00001070  00000-0  47619-4 0  9999
2 41619  97.3463  48.5767 0012862 107.9379 252.3261 15.23539449181294
PRATHAM
1 41783U 16059A   19349.88359545 +.00000033 +00000-0 +15506-4 0  9994
2 41783 098.0448 045.2616 0033755 175.0982 185.0558 14.63026373171890
ALSAT 1N
1 41789U 16059G   19350.40155904  .00000080  00000-0  24144-4 0  9993
2 41789  98.0479  48.1638 0028867 161.6680 198.5572 14.64283526172094
NAYIF 1
1 42017U 17008BX  19349.92420663 +.00001194 +00000-0 +49261-4 0  9999
2 42017 097.3840 055.0001 0004711 247.8389 112.2350 15.25977870157404
MAX VALIER SAT
1 42778U 17036P   19349.91660224 +.00000697 +00000-0 +33229-4 0  9996
2 42778 097.3322 043.4028 0011014 316.7882 043.2490 15.22300944137653
